Regional Weather Roundup
Issued by NWS

Home | Current Version | Previous Version | Graphics & Text | Print | Product List | Glossary Off
Versions: 1 2 3 4 5 6 7 8 9 10 11 12 13 14 15 16 17 18 19 20 21 22 23 24 25 26 27 28 29 30 31 32 33 34 35 36 37 38 39 40 41 42 43 44 45 46 47 48 49 50

000
ASUS45 KSLC 311010
RWRUT

UTAH REGIONAL WEATHER ROUNDUP
NATIONAL WEATHER SERVICE SALT LAKE CITY UT
400 AM MDT SUN AUG 31 2014

UTZ001>011-023>025-311100-

NORTHERN UTAH

CITY           SKY/WX    TMP DP  RH WIND       PRES   REMARKS
HILL AFB       CLOUDY    64  43  46 N23G37    29.93R
LOGAN          LGT RAIN  60  50  69 NE12      29.96R
OGDEN            N/A     64  42  44 NW22G29   29.90R
PROVO AIRPORT    N/A     70  48  46 NW17      29.86R
SALT LAKE CITY MOCLDY    67  45  45 N21G35    29.89R
VERNAL         CLOUDY    63  46  54 VRB5      29.88F
WENDOVER       MOCLDY    66  39  37 N6        29.92S
HEBER CITY     CLOUDY    63  41  45 SE3       29.91R
WEST JORDAN    CLEAR     70  46  43 NW22G28   29.93R

$$

UTZ012>022-026-027-311100-

SOUTHERN UTAH

CITY           SKY/WX    TMP DP  RH WIND       PRES   REMARKS
BRYCE CANYON     N/A     61  31  32 SW12      30.12F
CEDAR CITY       N/A     67  30  25 SW12      29.98R
MILFORD          N/A     65  35  33 SW10      29.91R
MOAB/CYNLANDS  CLEAR     74  33  22 N8        29.83R
PRICE            N/A     67  36  31 N8        29.92F
ST GEORGE        N/A     79  36  21 SE6       29.80F

$$

REGIONAL REPORTS     COLORADO/ARIZONA

CITY           SKY/WX    TMP DP  RH WIND       PRES   REMARKS
CRAIG, CO      CLOUDY    56  48  74 W6        30.01R
GRAND JUNCTION CLOUDY    67  42  40 E12       29.86F
RIFLE          CLOUDY    58  49  72 CALM      29.93F
MONTROSE       MOCLDY    61  41  47 SE8       30.00F
CORTEZ         CLEAR     53  43  68 E8        30.06S
PAGE, AZ         N/A     79  33  19 S9        29.90S
GRAND CANYON     N/A    N/A N/A N/A MISG        N/A
KINGMAN          N/A     84  38  19 S18G26    29.90S
FLAGSTAFF        N/A     54  40  59 W3        30.21S

$$

REGIONAL REPORTS    NEVADA/IDAHO/WYOMING

CITY           SKY/WX    TMP DP  RH WIND       PRES   REMARKS
LAS VEGAS, NV    N/A     86  32  14 S16       29.68S
ELY              N/A     61  30  31 W8        30.05R
ELKO           MOCLDY    60  38  43 NE13      30.02R
POCATELLO, ID  CLEAR     56  47  71 SW21      29.92S
BURLEY         MOCLDY    53  46  77 SW8       29.95S
EVANSTON, WY   CLOUDY    54  43  66 N9        30.03F
ROCK SPRINGS   CLOUDY    50  41  71 N16       30.02R

$$



USA.gov is the U.S. government's official web portal to all federal, state and local government web resources and services.